Flag for Germany Weather past 2 weeks in Leutkirch im Allgäu, Baden-Württemberg, Germany

Now
72 °F

Partly sunny.


Feels Like: 75 °F
Forecast: 55 / 66 °F
Wind: 1 mph from East

Location: Kempten

Current Time: Jul 28, 2014 at 7:14:23 PM

Latest Report: Jul 28, 2014 at 6:00 PM


Visibility: 17 mi

Pressure: 29.72 "Hg

Humidity: 69%

Dew point: 62 °F

Location of Leutkirch im AllgäuLocation

Historic Weather in Leutkirch im Allgäu — Graph

°F

Leutkirch im Allgäu temperature yesterday

Maximum temperature yesterday: 65 °F (at 7:00 PM)
Minimum temperature yesterday: 58 °F (at 2:00 AM)
Average temperature yesterday: 60 °F

Past Weeks' High & Low Weather Summary

 TemperatureHumidityPressure
High88 °F (Jul 19, 4:00 PM)100% (Jul 23, 4:00 AM)30.22 "Hg (Jul 23, 4:00 AM)
Low52 °F (Jul 18, 6:00 AM)24% (Jul 19, 6:00 PM)29.72 "Hg (Jul 28, 6:00 PM)
Average65 °F76%29.96 "Hg
* Reported Jul 13 6:00 PM — Jul 28 6:00 PM, Leutkirch im Allgäu, Weather by CustomWeather, © 2014

Note: Actual official high and low records may vary slightly from our data, if they occured in-between our weather recording intervals... More about our weather records

Advertising

Leutkirch im Allgäu weather history for previous 24 hours

 ConditionsComfort  
Time TempWeatherWind HumidityBarometerVisibility
6:00 PM
Jul 28
72 °FPartly sunny.1 mph69%29.72 "Hg17 mi
4:00 PM76 °FPassing clouds.3 mph58%29.72 "Hg17 mi
3:00 PM77 °FSunny.2 mph55%29.74 "Hg16 mi
2:00 PM76 °FSunny.2 mph55%29.76 "Hg19 mi
1:00 PM73 °FSunny.2 mph58%29.79 "Hg13 mi
12:00 PM72 °FOvercast.3 mph64%29.81 "Hg16 mi
11:00 AM69 °FPassing clouds.2 mph72%29.84 "Hg13 mi
10:00 AM69 °FSunny.1 mph75%29.86 "Hg13 mi
9:00 AM63 °FPassing clouds.1 mph89%29.90 "Hg12 mi
8:00 AM61 °FScattered clouds.1 mph96%29.92 "Hg6 mi
7:00 AM57 °FOvercast.2 mph99%29.95 "Hg2 mi
6:00 AM58 °FFog.1 mph100%29.95 "Hg4 mi
4:00 AM59 °FOvercast.2 mph99%29.96 "Hg5 mi
3:00 AM60 °FLight rain. Overcast.2 mph99%29.98 "Hg3 mi
2:00 AM60 °FRain. Overcast.1 mph98%30.00 "Hg1 mi
1:00 AM60 °FOvercast.2 mph98%30.01 "Hg6 mi
12:00 AM61 °FLight rain. Overcast.2 mph96%30.01 "Hg6 mi
10:00 PM
Jul 27
62 °FOvercast.2 mph90%30.01 "Hg16 mi
9:00 PM63 °FOvercast.2 mph87%30.01 "Hg12 mi
8:00 PM63 °FOvercast.2 mph85%30.01 "Hg12 mi
7:00 PM65 °FPartly sunny.3 mph84%29.98 "Hg19 mi
Weather by CustomWeather, © 2014

See weather overviewHow to use our weather pages